Location: Castiglione Fibocchi
(43.5333°N, 11.7667°E)
Time: 09:50:13
(UTC+00:00)

Cosmos 1356 Rocket - Pass Details

Date: 15 August 2020
Orbit: 542 x 599 km, 81.2° (Epoch: 18 September)

Event Time Altitude Azimuth Distance (km) Brightness Sun altitude
Exits shadow 02:10:25 26° 157° (SSE) 1,152 4.7 -20.3°
Maximum altitude 02:12:27 49° 96° (E) 745 4.2 -20.0°
Drops below altitude 10° 02:16:25 10° 21° (NNE) 1,864 7.0 -19.5°
Sets 02:18:38 0° 16° (NNE) 2,756 7.9 -19.2°
